www.pogodaiklimat.ru

Погода и климат >> Архив погоды >> Россия >> Татарстан >> Бугульма


ПОГОДА в Бугульме

  • Прогноз погоды в Бугульме
  • Монитор погоды в Бугульме

АРХИВ ПОГОДЫ в Бугульме

Время (UTC), дата Ветер
(напр.,м/с)
 
Видим.   Явления Облачность Т
(С)
Тd
(С)
f
(%)
Тe
(С)
Тes
(С)
Комфортность P
(гПа)
Po
(гПа)
Тmin
(С)
Tmax
(С)
R
(мм)
R24
(мм)
S
(см)
06 16.08 Ю 4 20 км 10/0
[Ac trans Ci fib]
+22.2 +15.2 65 +26 +30 душно 1016.8 982.0
09 16.08 Ю 3 20 км 8/0
[Ac trans Ci fib]
+25.1 +14.2 51 +28 +35 жарко 1015.6 981.1
12 16.08 Ю 4 20 км 8/0
[Ci fib]
+26.3 +13.7 46 +28 +32 жарко 1015.2 980.9
15 16.08 штиль 0 20 км 10/0
[Ac trans Ci fib]
+22.8 +16.2 66 +27 +27 душно 1015.3 980.6 +26.6
18 16.08 Ю 1 10 км 6/0
[Ac trans Ci fib]
+17.8 +15.2 85 +19 +19 1016.0 980.7
21 16.08 Ю 1 10 км 10/0
[Ac trans Ci fib]
+17.6 +13.4 76 +19 +19 1016.0 980.6
00 17.08 Ю 1 10 км 10/0
[Ac trans Ci fib]
+16.3 +13.2 82 +17 +17 1016.6 981.1
03 17.08 ЮВ 2 20 км 10/3 1000 м
[Sc Ac trans Ci fib]
+18.7 +13.8 73 +20 +21 1016.1 980.8 +15.3
06 17.08 Ю 4 20 км 10/3 1000 м
[Sc Ac trans Ci fib]
+24.9 +14.2 51 +27 +29 жарко 1015.6 981.1
09 17.08 Ю 4 20 км 10/4 1000 м
[Sc Ac trans Ci fib]
+26.0 +15.4 52 +29 +31 душно 1015.5 981.2
12 17.08 ЮЗ 3 20 км 10/3 1000 м
[Sc Ac trans Ci fib]
+26.0 +16.3 55 +29 +31 душно 1015.7 981.4
15 17.08 Ю 1 20 км 10/3 1000 м
[Sc Ac trans Ci fib]
+22.5 +16.2 68 +27 +27 душно 1016.4 981.6 +27.6
18 17.08 штиль 0 10 км 10/4 1000 м
[Sc Ac trans Ci fib]
+18.5 +15.2 81 +19 +19 1017.2 981.9
21 17.08 ЮВ 2 10 км 10/4 1000 м
[Sc Ac trans Ci fib]
+19.7 +15.5 77 +22 +22 комфорт 1017.0 981.9
00 18.08 Ю 2 10 км 8/3 1000 м
[Sc Ac trans Ci fib]
+18.5 +14.6 78 +20 +20 1017.1 981.8
03 18.08 Ю 2 20 км 10/3 1000 м
[Sc Ac trans Ci fib]
+20.3 +14.4 69 +23 +24 комфорт 1017.1 982.0 +18.0
06 18.08 Ю 2 20 км 10/4 1000 м
[Sc Ac und]
+23.8 +14.0 54 +26 +28 жарко 1017.1 982.5
09 18.08 Ю 2 20 км 10/0
[Ac trans Ci fib]
+28.7 +14.7 42 +31 +38 жарко 1017.1 983.0
12 18.08 Ю 3 20 км 10/3 1000 м
[Cu med, cong Ac trans Ci fib]
+30.0 +13.9 37 +32 +33 жарко 1017.0 983.0
15 18.08 Ю 1 20 км 10/3 1000 м
[Sc Ac trans Ci fib]
+27.4 +16.3 51 +31 +31 душно 1017.2 983.0 +30.0
18 18.08 ЮЗ 2 10 км 10/6 1200 м
[Sc Ac trans]
+22.2 +11.6 51 +24 +24 комфорт 1019.6 984.6
21 18.08 Ю 2 10 км 10/6 1200 м
[Sc Ac und]
+20.5 +12.1 59 +23 +23 комфорт 1020.2 985.0
00 19.08 Ю 1 10 км 10/10 1200 м
[Sc Ac und]
+20.4 +10.6 53 +23 +23 комфорт 1020.2 985.0
03 19.08 ЮВ 2 20 км 10/4 1000 м
[Sc Ac und]
+22.2 +11.9 52 +25 +25 комфорт 1020.5 985.5 +19.2
06 19.08 СВ 1
{11}
20 км в посл. час ливневой дождь 10/4 1000 м
[Cb calv Ac und]
+23.2 +13.5 54 +26 +28 жарко 1021.3 986.4
09 19.08 ЮВ 5 20 км 10/4 1000 м
[Sc Ci fib]
+27.9 +12.7 39 +29 +32 жарко 1020.1 985.8
12 19.08 ЮВ 3 20 км 10/3 1000 м
[Sc Ac trans Ci fib]
+29.3 +16.4 46 +33 +34 душно 1019.4 985.3
15 19.08 Ю 2 20 км 10/4 1000 м
[Cb calv Ac trans Ci fib]
+25.1 +15.6 56 +28 +28 жарко 1019.9 985.3 +30.2
18 19.08 Ю 3 10 км 8/0
[Ac trans Ci fib]
+23.4 +13.6 54 +27 +27 душно 1019.2 984.4
21 19.08 Ю 3 10 км 10/4 1000 м
[Sc Ac trans Ci fib]
+23.5 +11.5 47 +25 +25 комфорт 1018.5 983.8
00 20.08 ЮЗ 5 10 км 10/6 1200 м
[Cb calv Ac und]
+23.8 +9.1 39 +25 +25 комфорт 1017.9 983.2
03 20.08 Ю 3
{11}
20 км {гроза, ливн. осадки} 10/8 1200 м
[Cb calv Ac und]
+22.2 +11.2 50 +24 +24 комфорт 1018.0 983.1 +21.3 0.3
06 20.08 ЮЗ 3 20 км {гроза, ливн. осадки} 10/6 1200 м
[Sc Ac trans Ci fib]
+24.7 +12.1 45 +26 +28 жарко 1017.8 983.2
09 20.08 З 4 20 км {ливн. осадки} 10/6 1200 м
[Sc Ac trans Ci fib]
+26.3 +14.8 49 +29 +30 жарко 1017.5 983.1
12 20.08 З 4 20 км {ливн. осадки} 8/3 1000 м
[Cu med, cong Ac trans Ci fib]
+26.3 +16.5 55 +30 +32 душно 1017.6 983.2
15 20.08 СЗ 4 20 км 6/0
[Ac trans Ci fib]
+23.8 +15.9 61 +27 +27 жарко 1017.7 983.0 +27.4
18 20.08 З 3 10 км 3/0
[Ci fib]
+18.2 +13.8 75 +19 +19 1019.2 983.8
21 20.08 СЗ 2 10 км 3/0
[Ci fib]
+16.4 +13.9 85 +17 +17 1019.6 984.0
00 21.08 З 2 10 км 3/0
[Ci fib]
+15.0 +13.8 93 +15 +15 1019.9 984.1
03 21.08 З 3 500 м туман 10/10 60 м
[]
+15.5 +14.8 96 +15 +15 1020.1 984.4 +14.2
06 21.08 С 4 20 км {туман} 10/10 240 м
[St]
+17.5 +15.4 87 +17 +17 1020.8 985.3
09 21.08 СЗ 4 20 км {морось} 10/10 600 м
[Sc]
+19.2 +15.2 78 +21 +21 комфорт 1020.9 985.6
12 21.08 С 5 20 км {морось} 9/9 1000 м
[Sc]
+20.8 +14.5 67 +24 +24 комфорт 1020.8 985.7
15 21.08 С 2 20 км 4/4 1000 м
[Sc]
+19.1 +15.4 79 +21 +21 комфорт 1021.2 985.9 +20.9
18 21.08 С 2 10 км 6/3 1000 м
[Sc Ci fib]
+16.9 +14.8 87 +17 +17 1021.7 986.1
21 21.08 С 1 10 км 4/0
[Ci fib]
+15.2 +14.1 93 +16 +16 1022.0 986.2
00 22.08 штиль 0 500 м туман 4/0
[Ci fib]
+12.4 +11.6 95 +12 +12 1022.7 986.5
03 22.08 С 1 1000 м дымка {туман} 6/0
[Ac trans Ci fib]
+15.2 +14.5 96 +16 +17 1023.0 987.2 +11.8
06 22.08 С 2 20 км {туман} 6/4 300 м
[Frnb Ci fib]
+20.3 +14.6 70 +23 +28 комфорт 1022.3 987.1
09 22.08 С 2 20 км 8/6 600 м
[Cu hum Ci fib]
+22.6 +13.6 57 +26 +30 жарко 1021.7 986.7
12 22.08 СВ 1 20 км 8/6 600 м
[Sc Ci fib]
+23.9 +13.1 51 +26 +28 жарко 1021.0 986.2
15 22.08 С 1 20 км 6/3 1000 м
[Sc Ci fib]
+22.1 +13.8 59 +25 +25 комфорт 1020.8 985.8 +25.0
18 22.08 ЮЗ 1 10 км 4/0
[Ci fib]
+14.9 +13.0 88 +15 +15 1021.7 985.8
21 22.08 штиль 0 10 км 4/0
[Ci fib]
+14.0 +12.2 89 +14 +14 1021.6 985.6
00 23.08 ЮЗ 2 10 км 4/0
[Ci fib]
+16.0 +12.4 79 +16 +16 1020.9 985.2
03 23.08 ЮЗ 4 20 км 4/3 300 м
[Sc Ci fib]
+18.5 +13.7 74 +19 +19 1020.8 985.4 +12.5

 

Местоположение метеостанции Бугульма (Татарстан, Россия): широта 54.63 долгота 52.80 высота над уровнем моря 304 м.

В архиве по умолчанию представлена погода в Бугульме за последнюю неделю. Архивные данные за месяц целиком и за предыдущие месяцы, начиная с января 2011 года, Вы можете получить, выбрав интересующий диапазон дат из раскрывающегося списка и нажав кнопку "Ввод!".


*Определитесь, кто Вы:
робот инопланетянин человек

Внимание! Время в таблицах - всемирное. Для получения местного времени необходимо прибавить поправку, которая равна 3 ч.

Смотрите также архив погоды в соседних городах и на ближайших метеорологических станциях:

Погода в Азнакаево (Татарстан, Россия) (32 км)
Погода в Бавлах (Татарстан, Россия) (37 км)
Погода в Туймазах (Башкирия, Россия) (60 км)
Погода в Акташе (Татарстан, Россия) (64 км)
Погода в Клявлино (Самарская область, Россия) (64 км)
Погода в Муслюмово (Татарстан, Россия) (81 км)
Погода в Бакалах (Башкирия, Россия) (88 км)
Погода в Аксаково (Башкирия, Россия) (112 км)
Погода в Челно-Вершинах (Самарская область, Россия) (112 км)
Погода в Бегишево (Татарстан, Россия) (114 км)

Пояснения к столбцам:

Ветер - указаны скорость ветра в м/с - средняя за 10 мин, порывы в срок и между сроками (в фигурных скобках) и направление, откуда дует ветер: С - северный, СВ - северо-восточный, В - восточный, ЮВ - юго-восточный, Ю - южный, ЮЗ - юго-западный, З - западный, СЗ - северо-западный.
Видимость - горизонтальная дальность видимости в метрах или километрах. При видимости от 1 до 10 км при отсутствии осадков обычно наблюдается дымка, при ухудшении видимости до 1 км и менее - туман. В сухую погоду видимость может ухудшаться дымом, пылью или мглою.
Явления - указаны атмосферные явления, наблюдавшиеся в срок или в последний час перед сроком; фигурными скобками обозначены явления, наблюдавшиеся между сроками (за 1-3 часа до срока); квадратными скобками обозначены град или гололедные отложения с указанием их диаметра в мм.
Облачность - указаны через наклонную черту общая и нижняя облачность в баллах и высота нижней границы облаков в метрах; квадратными скобками обозначены формы облаков: Ci - перистые, Cs - перисто-слоистые, Cc - перисто-кучевые, Ac - высококучевые, As - высокослоистые, Sc - слоисто-кучевые, Ns - слоисто-дождевые, Cu - кучевые, Cb - кучево-дождевые. Подробнее классификацию облаков см. в Атласе облаков (PDF).
T - Температура воздуха - температура, измеренная на высоте 2 м над землей.
Td - Температура точки росы - температура, при понижении до которой содержащийся в воздухе водяной пар достигнет насыщения.
f - Относительная влажность воздуха - влажноcть воздуха, измеренная на высоте 2 м над землей.
Te - Эффективная температура - температура, которую ощущает одетый по сезону человек в тени. Характеристика душности погоды. При расчете учитывается влияние влажности воздуха и скорости ветра на теплоощущения человека.
Tes - Эффективная температура на солнце - температура, которую ощущает человек, с поправкой на солнечный нагрев. Характеристика знойности погоды. Зависит от высоты солнца над горизонтом, облачности и скорости ветра. Ночью, в пасмурную погоду, а также при ветре 12 м/с и более поправка равна нулю.
P - Атмосферное давление - приведенное к уровню моря атмосферное давление.
Po - Атмосферное давление - измеренное на уровне метеостанции атмосферное давление.
Tmin - Минимальная температура - минимум температуры воздуха на высоте 2 м над землей.
Tmax - Максимальная температура - максимум температуры воздуха на высоте 2 м над землей.
R - Количество осадков - Количество выпавших осадков за период времени, мм. При наведении курсора мыши на число - период времени, за который выпало указанное количество осадков.
R24 - Количество осадков - Количество выпавших осадков за 24 часа, мм.
S - Снежный покров - Высота снежного покрова, см. При наведении курсора мыши на число - состояние снежного покрова и степень покрытия местности в баллах.